World > North America > United States > Oregon > Lebanon

Hourly Lebanon, OR Regional Weather

Feedback E-mail the Weather

Quick WX

Lebanon, OR Weather Maps

°F °C°F °C
Lebanon Weather Map
UTC Time: 9/28/2022, 13:43
Your Time:

Lebanon, OR Regional Weather

Expires:202209281400;;596086
ASUS46 KPQR 281310
RWROR 

OREGON REGIONAL WEATHER ROUNDUP
NATIONAL WEATHER SERVICE PORTLAND OR
600 AM PDT WED SEP 28 2022

NOTE: "FAIR" INDICATES FEW OR NO CLOUDS BELOW 12,000 FEET WITH
NO SIGNIFICANT WEATHER AND/OR OBSTRUCTIONS TO VISIBILITY.


ORZ001>013-281400-
NORTHWEST OREGON

  
CITY           SKY/WX    TMP DP  RH WIND       PRES   REMARKS
ASTORIA        LGT RAIN  55  53  93 SE5       29.92S                  
TILLAMOOK      DRIZZLE   54  54 100 CALM      29.96S                  
NEWPORT        DRIZZLE   55  55 100 S7        29.98S                  
FLORENCE       MIX PCPN  57  57 100 S5        29.97S FOG              
PORTLAND       MOCLDY    59  51  75 SE7       29.99R                  
VANCOUVER WA   MOCLDY    59  51  75 E7        29.99R                  
SCAPPOOSE      CLOUDY    54  54 100 SW3       29.97S                  
HILLSBORO      MOCLDY    54  51  90 CALM      29.97S                  
AURORA         MOCLDY    54  51  90 CALM      29.98F                  
MCMINNVILLE    LGT RAIN  53  51  93 NE3       29.96S                  
SALEM          LGT RAIN  56  52  86 S6        29.97R                  
CORVALLIS      LGT RAIN  52  50  93 SE3       29.99R                  
EUGENE         LGT RAIN  54  52  93 S6        29.99R                  
CRESWELL       MOCLDY    50  50 100 CALM      29.98S                  
$$


SKY/WX - Weather  TMP - Temperature  DP - Dew Point  RH - Humidity
WIND - Wind Direction/Speed PRES - Barometric Pressure VSB - Visibility
WCI - Wind Chill Index E13G22 Wind - East Wind 13 mph/Gusts of 22 mph

Trending Headlines

Trending Entertainment Headlines

Lebanon Radar Loop

Use the map search tool if you want to place a location marker on the radar map...

Lebanon Quick Facts

National Two Day Weather Forecast


E-mail the Lebanon Weather Forecast

Voice your opinion or tell us about page issues...